Location: Barruelo
(41.2448°N, 3.8231°W)
Time: 21:15:00
(UTC+00:00)

USA 215 - Pass Details

Date: 11 December 2025
Orbit: 1098 x 1109 km, 123.0° (Epoch: 10 January)

Event Time Altitude Azimuth Distance (km) Brightness Sun altitude
Exits shadow 18:41:10 22° 31° (NNE) 2,218 4.5 -20.8°
Maximum altitude 18:42:46 24° 11° (N) 2,112 4.5 -21.1°
Drops below altitude 10° 18:47:44 10° 321° (NW) 2,962 5.8 -22.0°
Sets 18:50:42 0° 308° (NW) 3,919 6.7 -22.6°
